Regional Weather Roundup
Issued by NWS

Home | Current Version | Previous Version | Text Only | Print | Product List | Glossary Off
Versions: 1 2 3 4 5 6 7 8 9 10 11 12 13 14 15 16 17 18 19 20 21 22 23 24 25 26 27 28 29 30 31 32 33 34 35 36 37 38 39 40 41 42 43 44 45 46 47 48 49 50

000
ASUS45 KSLC 202210
RWRUT

UTAH REGIONAL WEATHER ROUNDUP
NATIONAL WEATHER SERVICE SALT LAKE CITY UT
400 PM MDT WED AUG 20 2014

UTZ001>011-023>025-202300-

NORTHERN UTAH

CITY           SKY/WX    TMP DP  RH WIND       PRES   REMARKS
HILL AFB       MOSUNNY   79  50  36 SW14      29.97F
LOGAN          MOSUNNY   82  50  32 SE6G17    29.93F
OGDEN          SUNNY     81  49  32 S9        29.94F
PROVO AIRPORT  MOSUNNY   79  54  41 E6        30.00F
SALT LAKE CITY PTSUNNY   79  49  34 S10       29.93F
VERNAL         PTSUNNY   74  51  44 CALM      30.00F
WENDOVER       MOSUNNY   88  37  16 S22       29.89F
HEBER CITY     MOSUNNY   77  45  31 SW12      30.03F
WEST JORDAN    SUNNY     79  57  47 SE15      29.97F

$$

UTZ012>022-026-027-202300-

SOUTHERN UTAH

CITY           SKY/WX    TMP DP  RH WIND       PRES   REMARKS
BRYCE CANYON   MOSUNNY   64  47  53 SE15      30.22F
CEDAR CITY     MOSUNNY   78  48  34 SW16G23   30.08F
MILFORD        PTSUNNY   84  46  26 S13G26    30.04R
MOAB/CYNLANDS  MOSUNNY   84  46  26 W9G18     29.95F
PRICE          PTSUNNY   76  48  37 W7        30.05F
ST GEORGE      PTCLDY    86  54  32 CALM      29.95F
KANAB            N/A     79  48  34 SW12      30.11S

$$

REGIONAL REPORTS     COLORADO/ARIZONA

CITY           SKY/WX    TMP DP  RH WIND       PRES   REMARKS
CRAIG, CO      PTSUNNY   70  53  54 SW3       30.08F
GRAND JUNCTION SUNNY     79  52  38 VRB3      29.98F
RIFLE          MOSUNNY   80  46  30 W18       30.00F
MONTROSE       MOSUNNY   77  50  38 N7        30.06S
CORTEZ         SUNNY     81  39  22 W16G25    30.10F
PAGE, AZ       PTSUNNY   86  44  23 W3        29.99F
GRAND CANYON   PTSUNNY   72  45  37 SW14G20   30.21F
KINGMAN        MOSUNNY   85  48  27 E13G26    30.00F
FLAGSTAFF      MOSUNNY   69  45  41 SW12      30.24F

$$

REGIONAL REPORTS    NEVADA/IDAHO/WYOMING

CITY           SKY/WX    TMP DP  RH WIND       PRES   REMARKS
LAS VEGAS, NV  PTSUNNY   92  44  19 SE12      29.85S
ELY            SUNNY     77  43  29 SW12G17   30.06F
ELKO           MOSUNNY   82  37  20 SE23      29.93F
POCATELLO, ID  LGT RAIN  78  50  37 SW16G24   29.90F
BURLEY         PTSUNNY   79  48  33 S10       29.86F
EVANSTON, WY   PTSUNNY   71  44  37 W17G26    30.10F
ROCK SPRINGS   CLOUDY    64  44  48 W6        30.10F

$$



USA.gov is the U.S. government's official web portal to all federal, state and local government web resources and services.